Regional Weather Roundup
Issued by NWS

Home | Current Version | Previous Version | Graphics & Text | Print | Product List | Glossary On
Versions: 1 2 3 4 5 6 7 8 9 10 11 12 13 14 15 16 17 18 19 20 21 22 23 24 25 26 27 28 29 30 31 32 33 34 35 36 37 38 39 40 41 42 43 44 45 46 47 48 49 50
000
ASUS43 KBIS 281159
RWRND

NORTH DAKOTA REGIONAL WEATHER ROUNDUP
NATIONAL WEATHER SERVICE BISMARCK ND
700 AM CDT THU AUG 28 2014

NOTE: "FAIR" INDICATES FEW OR NO CLOUDS BELOW 12,000 FEET WITH NO
SIGNIFICANT WEATHER AND/OR OBSTRUCTIONS TO VISIBILITY.


NDZ001>003-009>011-017-281300-
NORTHWEST NORTH DAKOTA

CITY           SKY/WX    TMP DP  RH WIND       PRES   REMARKS
WILLISTON      CLEAR     55  54  96 SW5       29.90S
6HR MIN TEMP:  55; 6HR MAX TEMP:  67;

MINOT          MOCLDY    62  60  93 S8        29.91S
$$

NDZ018>021-031>035-040>046-281300-
SOUTHWEST NORTH DAKOTA

CITY           SKY/WX    TMP DP  RH WIND       PRES   REMARKS
BISMARCK       CLOUDY    61  60  97 NE3       29.95S
6HR MIN TEMP:  58; 6HR MAX TEMP:  65;

GARRISON         N/A     62  62 100 S3        29.94S
6HR MIN TEMP:  61; 6HR MAX TEMP:  63;

HETTINGER ARPT FOG       57  56  96 CALM      29.98S VSB 1/4
$$

NDZ004>008-012>016-024-026-027-054-281300-
NORTHEAST NORTH DAKOTA

CITY           SKY/WX    TMP DP  RH WIND       PRES   REMARKS
GRAND FORKS    MOCLDY    62  59  90 SE9       29.97F
DEVILS LAKE    PTCLDY    61  54  77 SE5       29.94S
$$

NDZ022-023-025-028>030-036>039-047>053-281300-
SOUTHEAST NORTH DAKOTA

CITY           SKY/WX    TMP DP  RH WIND       PRES   REMARKS
FARGO          CLOUDY    66  59  78 SE12      29.99F
6HR MIN TEMP:  65; 6HR MAX TEMP:  66;

$$



USA.gov is the U.S. government's official web portal to all federal, state and local government web resources and services.